Year,Month,Day,Hour,Minute,Value (Times are PST for temperature in C)
2015,05,21,00,00,11.10
2015,05,21,00,01,11.10
2015,05,21,00,02,11.10
2015,05,21,00,03,11.10
2015,05,21,00,04,11.10
2015,05,21,00,05,11.10
2015,05,21,00,06,11.10
2015,05,21,00,07,11.00
2015,05,21,00,08,10.90
2015,05,21,00,09,10.90
2015,05,21,00,10,10.90
2015,05,21,00,11,10.90
2015,05,21,00,12,10.90
2015,05,21,00,13,10.90
2015,05,21,00,14,10.90
2015,05,21,00,15,10.90
2015,05,21,00,16,10.90
2015,05,21,00,17,10.90
2015,05,21,00,18,10.90
2015,05,21,00,19,10.90
2015,05,21,00,20,11.00
2015,05,21,00,21,11.10
2015,05,21,00,22,11.10
2015,05,21,00,23,11.10
2015,05,21,00,24,11.20
2015,05,21,00,25,11.20
2015,05,21,00,26,11.20
2015,05,21,00,27,11.10
2015,05,21,00,28,11.10
2015,05,21,00,29,11.10
2015,05,21,00,30,11.00
2015,05,21,00,31,10.90
2015,05,21,00,32,10.90
2015,05,21,00,33,10.90
2015,05,21,00,34,10.90
2015,05,21,00,35,10.90
2015,05,21,00,36,10.90
2015,05,21,00,37,10.90
2015,05,21,00,38,10.90
2015,05,21,00,39,10.90
2015,05,21,00,40,10.90
2015,05,21,00,41,10.90
2015,05,21,00,42,10.90
2015,05,21,00,43,10.90
2015,05,21,00,44,10.90
2015,05,21,00,45,10.90
2015,05,21,00,46,10.90
2015,05,21,00,47,10.90
2015,05,21,00,48,10.90
2015,05,21,00,49,11.00
2015,05,21,00,50,11.10
2015,05,21,00,51,11.10
2015,05,21,00,52,11.10
2015,05,21,00,53,11.10
2015,05,21,00,54,11.20
2015,05,21,00,55,11.20
2015,05,21,00,56,11.30
2015,05,21,00,57,11.30
2015,05,21,00,58,11.40
2015,05,21,00,59,11.40
2015,05,21,01,00,11.40
2015,05,21,01,01,11.40
2015,05,21,01,02,11.40
2015,05,21,01,03,11.40
2015,05,21,01,04,11.40
2015,05,21,01,05,11.40
2015,05,21,01,06,11.40
2015,05,21,01,07,11.40
2015,05,21,01,08,11.40
2015,05,21,01,09,11.40
2015,05,21,01,10,11.40
2015,05,21,01,11,11.40
2015,05,21,01,12,11.40
2015,05,21,01,13,11.40
2015,05,21,01,14,11.40
2015,05,21,01,15,11.40
2015,05,21,01,16,11.40
2015,05,21,01,17,11.40
2015,05,21,01,18,11.40
2015,05,21,01,19,11.40
2015,05,21,01,20,11.40
2015,05,21,01,21,11.40
2015,05,21,01,22,11.40
2015,05,21,01,23,11.40
2015,05,21,01,24,11.40
2015,05,21,01,25,11.40
2015,05,21,01,26,11.40
2015,05,21,01,27,11.40
2015,05,21,01,28,11.40
2015,05,21,01,29,11.40
2015,05,21,01,30,11.40
2015,05,21,01,31,11.40
2015,05,21,01,32,11.40
2015,05,21,01,33,11.40
2015,05,21,01,34,11.30
2015,05,21,01,35,11.30
2015,05,21,01,36,11.30
2015,05,21,01,37,11.30
2015,05,21,01,38,11.20
2015,05,21,01,39,11.20
2015,05,21,01,40,11.20
2015,05,21,01,41,11.10
2015,05,21,01,42,11.10
2015,05,21,01,43,11.10
2015,05,21,01,44,11.10
2015,05,21,01,45,11.10
2015,05,21,01,46,11.10
2015,05,21,01,47,11.10
2015,05,21,01,48,11.10
2015,05,21,01,49,11.10
2015,05,21,01,50,11.00
2015,05,21,01,51,10.90
2015,05,21,01,52,10.90
2015,05,21,01,53,10.90
2015,05,21,01,54,10.90
2015,05,21,01,55,10.90
2015,05,21,01,56,10.90
2015,05,21,01,57,10.90
2015,05,21,01,58,10.90
2015,05,21,01,59,10.90
2015,05,21,02,00,10.90
2015,05,21,02,01,10.90
2015,05,21,02,02,10.90
2015,05,21,02,03,10.90
2015,05,21,02,04,10.90
2015,05,21,02,05,11.10
2015,05,21,02,06,11.10
2015,05,21,02,07,11.10
2015,05,21,02,08,11.10
2015,05,21,02,09,11.10
2015,05,21,02,10,11.10
2015,05,21,02,11,11.10
2015,05,21,02,12,11.10
2015,05,21,02,13,11.10
2015,05,21,02,14,11.10
2015,05,21,02,15,11.10
2015,05,21,02,16,11.10
2015,05,21,02,17,11.10
2015,05,21,02,18,11.20
2015,05,21,02,19,11.20
2015,05,21,02,20,11.20
2015,05,21,02,21,11.20
2015,05,21,02,22,11.20
2015,05,21,02,23,11.30
2015,05,21,02,24,11.30
2015,05,21,02,25,11.30
2015,05,21,02,26,11.30
2015,05,21,02,27,11.30
2015,05,21,02,28,11.30
2015,05,21,02,29,11.30
2015,05,21,02,30,11.30
2015,05,21,02,31,11.20
2015,05,21,02,32,11.20
2015,05,21,02,33,11.20
2015,05,21,02,34,11.10
2015,05,21,02,35,11.10
2015,05,21,02,36,11.10
2015,05,21,02,37,11.10
2015,05,21,02,38,11.10
2015,05,21,02,39,11.00
2015,05,21,02,40,10.90
2015,05,21,02,41,10.90
2015,05,21,02,42,10.90
2015,05,21,02,43,10.90
2015,05,21,02,44,10.90
2015,05,21,02,45,10.90
2015,05,21,02,46,10.90
2015,05,21,02,47,10.90
2015,05,21,02,48,10.80
2015,05,21,02,49,10.80
2015,05,21,02,50,10.80
2015,05,21,02,51,10.80
2015,05,21,02,52,10.80
2015,05,21,02,53,10.80
2015,05,21,02,54,10.70
2015,05,21,02,55,10.70
2015,05,21,02,56,10.70
2015,05,21,02,57,10.70
2015,05,21,02,58,10.70
2015,05,21,02,59,10.70
2015,05,21,03,00,10.70
2015,05,21,03,01,10.70
2015,05,21,03,02,10.60
2015,05,21,03,03,10.60
2015,05,21,03,04,10.60
2015,05,21,03,05,10.60
2015,05,21,03,06,10.60
2015,05,21,03,07,10.60
2015,05,21,03,08,10.60
2015,05,21,03,09,10.60
2015,05,21,03,10,10.60
2015,05,21,03,11,10.60
2015,05,21,03,12,10.50
2015,05,21,03,13,10.40
2015,05,21,03,14,10.40
2015,05,21,03,15,10.40
2015,05,21,03,16,10.40
2015,05,21,03,17,10.40
2015,05,21,03,18,10.40
2015,05,21,03,19,10.40
2015,05,21,03,20,10.40
2015,05,21,03,21,10.40
2015,05,21,03,22,10.40
2015,05,21,03,23,10.40
2015,05,21,03,24,10.30
2015,05,21,03,25,10.30
2015,05,21,03,26,10.30
2015,05,21,03,27,10.30
2015,05,21,03,28,10.20
2015,05,21,03,29,10.20
2015,05,21,03,30,10.20
2015,05,21,03,31,10.10
2015,05,21,03,32,10.10
2015,05,21,03,33,10.10
2015,05,21,03,34,10.10
2015,05,21,03,35,10.10
2015,05,21,03,36,10.10
2015,05,21,03,37,10.10
2015,05,21,03,38,10.10
2015,05,21,03,39,10.10
2015,05,21,03,40,10.10
2015,05,21,03,41,10.10
2015,05,21,03,42,10.10
2015,05,21,03,43,10.10
2015,05,21,03,44,10.10
2015,05,21,03,45,10.10
2015,05,21,03,46,10.10
2015,05,21,03,47,10.10
2015,05,21,03,48,10.10
2015,05,21,03,49,10.10
2015,05,21,03,50,10.10
2015,05,21,03,51,10.10
2015,05,21,03,52,10.10
2015,05,21,03,53,10.20
2015,05,21,03,54,10.20
2015,05,21,03,55,10.20
2015,05,21,03,56,10.20
2015,05,21,03,57,10.20
2015,05,21,03,58,10.20
2015,05,21,03,59,10.20
2015,05,21,04,00,10.20
2015,05,21,04,01,10.20
2015,05,21,04,02,10.20
2015,05,21,04,03,10.20
2015,05,21,04,04,10.20
2015,05,21,04,05,10.10
2015,05,21,04,06,10.10
2015,05,21,04,07,10.10
2015,05,21,04,08,10.10
2015,05,21,04,09,9.90
2015,05,21,04,10,9.90
2015,05,21,04,11,9.90
2015,05,21,04,12,9.90
2015,05,21,04,13,9.90
2015,05,21,04,14,9.90
2015,05,21,04,15,9.90
2015,05,21,04,16,9.90
2015,05,21,04,17,9.90
2015,05,21,04,18,9.90
2015,05,21,04,19,9.80
2015,05,21,04,20,9.80
2015,05,21,04,21,9.80
2015,05,21,04,22,9.70
2015,05,21,04,23,9.70
2015,05,21,04,24,9.70
2015,05,21,04,25,9.60
2015,05,21,04,26,9.50
2015,05,21,04,27,9.50
2015,05,21,04,28,9.50
2015,05,21,04,29,9.50
2015,05,21,04,30,9.40
2015,05,21,04,31,9.40
2015,05,21,04,32,9.40
2015,05,21,04,33,9.40
2015,05,21,04,34,9.40
2015,05,21,04,35,9.40
2015,05,21,04,36,9.40
2015,05,21,04,37,9.40
2015,05,21,04,38,9.40
2015,05,21,04,39,9.50
2015,05,21,04,40,9.50
2015,05,21,04,41,9.60
2015,05,21,04,42,9.60
2015,05,21,04,43,9.60
2015,05,21,04,44,9.70
2015,05,21,04,45,9.70
2015,05,21,04,46,9.70
2015,05,21,04,47,9.70
2015,05,21,04,48,9.70
2015,05,21,04,49,9.70
2015,05,21,04,50,9.70
2015,05,21,04,51,9.70
2015,05,21,04,52,9.70
2015,05,21,04,53,9.70
2015,05,21,04,54,9.70
2015,05,21,04,55,9.80
2015,05,21,04,56,9.80
2015,05,21,04,57,9.80
2015,05,21,04,58,9.80
2015,05,21,04,59,9.80
2015,05,21,05,00,9.80
2015,05,21,05,01,9.80
2015,05,21,05,02,9.80
2015,05,21,05,03,9.80
2015,05,21,05,04,9.80
2015,05,21,05,05,9.80
2015,05,21,05,06,9.80
2015,05,21,05,07,9.80
2015,05,21,05,08,9.80
2015,05,21,05,09,9.80
2015,05,21,05,10,9.80
2015,05,21,05,11,9.80
2015,05,21,05,12,9.80
2015,05,21,05,13,9.80
2015,05,21,05,14,9.80
2015,05,21,05,15,9.80
2015,05,21,05,16,9.80
2015,05,21,05,17,9.80
2015,05,21,05,18,9.80
2015,05,21,05,19,9.70
2015,05,21,05,20,9.70
2015,05,21,05,21,9.70
2015,05,21,05,22,9.60
2015,05,21,05,23,9.50
2015,05,21,05,24,9.40
2015,05,21,05,25,9.30
2015,05,21,05,26,9.30
2015,05,21,05,27,9.20
2015,05,21,05,28,9.20
2015,05,21,05,29,9.20
2015,05,21,05,30,9.20
2015,05,21,05,31,9.10
2015,05,21,05,32,9.10
2015,05,21,05,33,9.10
2015,05,21,05,34,9.10
2015,05,21,05,35,9.10
2015,05,21,05,36,9.10
2015,05,21,05,37,9.10
2015,05,21,05,38,9.10
2015,05,21,05,39,9.10
2015,05,21,05,40,9.00
2015,05,21,05,41,9.00
2015,05,21,05,42,9.00
2015,05,21,05,43,8.90
2015,05,21,05,44,8.90
2015,05,21,05,45,8.80
2015,05,21,05,46,8.80
2015,05,21,05,47,8.80
2015,05,21,05,48,8.80
2015,05,21,05,49,8.70
2015,05,21,05,50,8.70
2015,05,21,05,51,8.70
2015,05,21,05,52,8.70
2015,05,21,05,53,8.70
2015,05,21,05,54,8.70
2015,05,21,05,55,8.70
2015,05,21,05,56,8.70
2015,05,21,05,57,8.70
2015,05,21,05,58,8.70
2015,05,21,05,59,8.70
2015,05,21,06,00,8.70
2015,05,21,06,01,8.70
2015,05,21,06,02,8.70
2015,05,21,06,03,8.70
2015,05,21,06,04,8.70
2015,05,21,06,05,8.70
2015,05,21,06,06,8.70
2015,05,21,06,07,8.70
2015,05,21,06,08,8.70
2015,05,21,06,09,8.70
2015,05,21,06,10,8.70
2015,05,21,06,11,8.70
2015,05,21,06,12,8.70
2015,05,21,06,13,8.70
2015,05,21,06,14,8.70
2015,05,21,06,15,8.70
2015,05,21,06,16,8.70
2015,05,21,06,17,8.70
2015,05,21,06,18,8.80
2015,05,21,06,19,8.90
2015,05,21,06,20,8.90
2015,05,21,06,21,9.00
2015,05,21,06,22,9.00
2015,05,21,06,23,9.10
2015,05,21,06,24,9.10
2015,05,21,06,25,9.20
2015,05,21,06,26,9.20
2015,05,21,06,27,9.20
2015,05,21,06,28,9.30
2015,05,21,06,29,9.30
2015,05,21,06,30,9.40
2015,05,21,06,31,9.50
2015,05,21,06,32,9.50
2015,05,21,06,33,9.60
2015,05,21,06,34,9.70
2015,05,21,06,35,9.70
2015,05,21,06,36,9.80
2015,05,21,06,37,9.90
2015,05,21,06,38,9.90
2015,05,21,06,39,10.00
2015,05,21,06,40,10.10
2015,05,21,06,41,10.10
2015,05,21,06,42,10.10
2015,05,21,06,43,10.10
2015,05,21,06,44,10.20
2015,05,21,06,45,10.20
2015,05,21,06,46,10.30
2015,05,21,06,47,10.30
2015,05,21,06,48,10.40
2015,05,21,06,49,10.40
2015,05,21,06,50,10.50
2015,05,21,06,51,10.60
2015,05,21,06,52,10.60
2015,05,21,06,53,10.70
2015,05,21,06,54,10.80
2015,05,21,06,55,10.90
2015,05,21,06,56,10.90
2015,05,21,06,57,11.00
2015,05,21,06,58,11.10
2015,05,21,06,59,11.20
2015,05,21,07,00,11.30
2015,05,21,07,01,11.40
2015,05,21,07,02,11.50
2015,05,21,07,03,11.60
2015,05,21,07,04,11.60
2015,05,21,07,05,11.70
2015,05,21,07,06,11.80
2015,05,21,07,07,11.80
2015,05,21,07,08,11.90
2015,05,21,07,09,12.00
2015,05,21,07,10,12.10
2015,05,21,07,11,12.20
2015,05,21,07,12,12.30
2015,05,21,07,13,12.40
2015,05,21,07,14,12.50
2015,05,21,07,15,12.60
2015,05,21,07,16,12.70
2015,05,21,07,17,12.80
2015,05,21,07,18,12.90
2015,05,21,07,19,13.00
2015,05,21,07,20,13.10
2015,05,21,07,21,13.20
2015,05,21,07,22,13.30
2015,05,21,07,23,13.50
2015,05,21,07,24,13.50
2015,05,21,07,25,13.60
2015,05,21,07,26,13.70
2015,05,21,07,27,13.80
2015,05,21,07,28,13.90
2015,05,21,07,29,14.00
2015,05,21,07,30,14.00
2015,05,21,07,31,14.10
2015,05,21,07,32,14.20
2015,05,21,07,33,14.30
2015,05,21,07,34,14.40
2015,05,21,07,35,14.50
2015,05,21,07,36,14.60
2015,05,21,07,37,14.70
2015,05,21,07,38,14.80
2015,05,21,07,39,14.80
2015,05,21,07,40,14.90
2015,05,21,07,41,14.90
2015,05,21,07,42,14.80
2015,05,21,07,43,14.70
2015,05,21,07,44,14.50
2015,05,21,07,45,14.40
2015,05,21,07,46,14.20
2015,05,21,07,47,14.10
2015,05,21,07,48,13.90
2015,05,21,07,49,13.80
2015,05,21,07,50,13.70
2015,05,21,07,51,13.60
2015,05,21,07,52,13.60
2015,05,21,07,53,13.50
2015,05,21,07,54,13.50
2015,05,21,07,55,13.40
2015,05,21,07,56,13.50
2015,05,21,07,57,13.50
2015,05,21,07,58,13.50
2015,05,21,07,59,13.50
2015,05,21,08,00,13.50
2015,05,21,08,01,13.60
2015,05,21,08,02,13.60
2015,05,21,08,03,13.70
2015,05,21,08,04,13.70
2015,05,21,08,05,13.70
2015,05,21,08,06,13.70
2015,05,21,08,07,13.60
2015,05,21,08,08,13.60
2015,05,21,08,09,13.60
2015,05,21,08,10,13.60
2015,05,21,08,11,13.60
2015,05,21,08,12,13.60
2015,05,21,08,13,13.60
2015,05,21,08,14,13.60
2015,05,21,08,15,13.50
2015,05,21,08,16,13.50
2015,05,21,08,17,13.40
2015,05,21,08,18,13.40
2015,05,21,08,19,13.40
2015,05,21,08,20,13.50
2015,05,21,08,21,13.50
2015,05,21,08,22,13.60
2015,05,21,08,23,13.70
2015,05,21,08,24,13.70
2015,05,21,08,25,13.80
2015,05,21,08,26,13.90
2015,05,21,08,27,13.90
2015,05,21,08,28,13.90
2015,05,21,08,29,14.00
2015,05,21,08,30,14.10
2015,05,21,08,31,14.20
2015,05,21,08,32,14.20
2015,05,21,08,33,14.20
2015,05,21,08,34,14.20
2015,05,21,08,35,14.30
2015,05,21,08,36,14.30
2015,05,21,08,37,14.30
2015,05,21,08,38,14.40
2015,05,21,08,39,14.40
2015,05,21,08,40,14.50
2015,05,21,08,41,14.50
2015,05,21,08,42,14.60
2015,05,21,08,43,14.70
2015,05,21,08,44,14.70
2015,05,21,08,45,14.80
2015,05,21,08,46,14.80
2015,05,21,08,47,14.80
2015,05,21,08,48,14.80
2015,05,21,08,49,14.90
2015,05,21,08,50,15.00
2015,05,21,08,51,15.00
2015,05,21,08,52,15.10
2015,05,21,08,53,15.10
2015,05,21,08,54,15.10
2015,05,21,08,55,15.10
2015,05,21,08,56,15.10
2015,05,21,08,57,15.10
2015,05,21,08,58,15.10
2015,05,21,08,59,15.10
2015,05,21,09,00,15.10
2015,05,21,09,01,15.10
2015,05,21,09,02,15.10
2015,05,21,09,03,15.10
2015,05,21,09,04,15.10
2015,05,21,09,05,15.10
2015,05,21,09,06,15.20
2015,05,21,09,07,15.20
2015,05,21,09,08,15.30
2015,05,21,09,09,15.30
2015,05,21,09,10,15.40
2015,05,21,09,11,15.40
2015,05,21,09,12,15.40
2015,05,21,09,13,15.50
2015,05,21,09,14,15.50
2015,05,21,09,15,15.50
2015,05,21,09,16,15.60
2015,05,21,09,17,15.60
2015,05,21,09,18,15.70
2015,05,21,09,19,15.70
2015,05,21,09,20,15.80
2015,05,21,09,21,15.80
2015,05,21,09,22,15.80
2015,05,21,09,23,15.80
2015,05,21,09,24,15.80
2015,05,21,09,25,15.80
2015,05,21,09,26,15.80
2015,05,21,09,27,15.90
2015,05,21,09,28,15.90
2015,05,21,09,29,16.00
2015,05,21,09,30,16.10
2015,05,21,09,31,16.20
2015,05,21,09,32,16.30
2015,05,21,09,33,16.30
2015,05,21,09,34,16.40
2015,05,21,09,35,16.50
2015,05,21,09,36,16.60
2015,05,21,09,37,16.70
2015,05,21,09,38,16.70
2015,05,21,09,39,16.90
2015,05,21,09,40,17.00
2015,05,21,09,41,17.00
2015,05,21,09,42,17.20
2015,05,21,09,43,17.30
2015,05,21,09,44,17.40
2015,05,21,09,45,17.50
2015,05,21,09,46,17.50
2015,05,21,09,47,17.60
2015,05,21,09,48,17.70
2015,05,21,09,49,17.70
2015,05,21,09,50,17.80
2015,05,21,09,51,17.80
2015,05,21,09,52,17.80
2015,05,21,09,53,17.90
2015,05,21,09,54,17.90
2015,05,21,09,55,17.90
2015,05,21,09,56,17.90
2015,05,21,09,57,17.90
2015,05,21,09,58,17.80
2015,05,21,09,59,17.80
2015,05,21,10,00,17.80
2015,05,21,10,01,17.80
2015,05,21,10,02,17.70
2015,05,21,10,03,17.60
2015,05,21,10,04,17.60
2015,05,21,10,05,17.60
2015,05,21,10,06,17.60
2015,05,21,10,07,17.60
2015,05,21,10,08,17.60
2015,05,21,10,09,17.60
2015,05,21,10,10,17.60
2015,05,21,10,11,17.60
2015,05,21,10,12,17.60
2015,05,21,10,13,17.40
2015,05,21,10,14,17.30
2015,05,21,10,15,17.30
2015,05,21,10,16,17.30
2015,05,21,10,17,17.30
2015,05,21,10,18,17.40
2015,05,21,10,19,17.40
2015,05,21,10,20,17.50
2015,05,21,10,21,17.60
2015,05,21,10,22,17.60
2015,05,21,10,23,17.70
2015,05,21,10,24,17.70
2015,05,21,10,25,17.70
2015,05,21,10,26,17.70
2015,05,21,10,27,17.70
2015,05,21,10,28,17.60
2015,05,21,10,29,17.50
2015,05,21,10,30,17.50
2015,05,21,10,31,17.50
2015,05,21,10,32,17.50
2015,05,21,10,33,17.60
2015,05,21,10,34,17.60
2015,05,21,10,35,17.70
2015,05,21,10,36,17.70
2015,05,21,10,37,17.70
2015,05,21,10,38,17.80
2015,05,21,10,39,17.90
2015,05,21,10,40,17.90
2015,05,21,10,41,17.90
2015,05,21,10,42,18.00
2015,05,21,10,43,18.10
2015,05,21,10,44,18.10
2015,05,21,10,45,18.10
2015,05,21,10,46,18.20
2015,05,21,10,47,18.20
2015,05,21,10,48,18.20
2015,05,21,10,49,18.20
2015,05,21,10,50,18.10
2015,05,21,10,51,18.00
2015,05,21,10,52,17.90
2015,05,21,10,53,17.90
2015,05,21,10,54,17.90
2015,05,21,10,55,17.90
2015,05,21,10,56,17.90
2015,05,21,10,57,17.90
2015,05,21,10,58,17.90
2015,05,21,10,59,17.90
2015,05,21,11,00,17.90
2015,05,21,11,01,17.90
2015,05,21,11,02,17.90
2015,05,21,11,03,17.90
2015,05,21,11,04,17.90
2015,05,21,11,05,17.90
2015,05,21,11,06,17.80
2015,05,21,11,07,17.70
2015,05,21,11,08,17.60
2015,05,21,11,09,17.60
2015,05,21,11,10,17.60
2015,05,21,11,11,17.60
2015,05,21,11,12,17.60
2015,05,21,11,13,17.60
2015,05,21,11,14,17.60
2015,05,21,11,15,17.70
2015,05,21,11,16,17.80
2015,05,21,11,17,17.80
2015,05,21,11,18,17.90
2015,05,21,11,19,17.90
2015,05,21,11,20,17.90
2015,05,21,11,21,18.00
2015,05,21,11,22,18.10
2015,05,21,11,23,18.10
2015,05,21,11,24,18.10
2015,05,21,11,25,18.00
2015,05,21,11,26,17.90
2015,05,21,11,27,17.90
2015,05,21,11,28,17.90
2015,05,21,11,29,17.90
2015,05,21,11,30,17.90
2015,05,21,11,31,17.90
2015,05,21,11,32,17.90
2015,05,21,11,33,18.00
2015,05,21,11,34,18.10
2015,05,21,11,35,18.20
2015,05,21,11,36,18.20
2015,05,21,11,37,18.20
2015,05,21,11,38,18.10
2015,05,21,11,39,18.00
2015,05,21,11,40,17.90
2015,05,21,11,41,18.00
2015,05,21,11,42,18.10
2015,05,21,11,43,18.10
2015,05,21,11,44,18.20
2015,05,21,11,45,18.20
2015,05,21,11,46,18.20
2015,05,21,11,47,18.20
2015,05,21,11,48,18.20
2015,05,21,11,49,18.30
2015,05,21,11,50,18.40
2015,05,21,11,51,18.40
2015,05,21,11,52,18.50
2015,05,21,11,53,18.60
2015,05,21,11,54,18.60
2015,05,21,11,55,18.70
2015,05,21,11,56,18.80
2015,05,21,11,57,18.80
2015,05,21,11,58,18.90
2015,05,21,11,59,18.90
2015,05,21,12,00,18.90
2015,05,21,12,01,18.90
2015,05,21,12,02,19.10
2015,05,21,12,03,19.10
2015,05,21,12,04,19.10
2015,05,21,12,05,19.10
2015,05,21,12,06,19.10
2015,05,21,12,07,19.20
2015,05,21,12,08,19.30
2015,05,21,12,09,19.40
2015,05,21,12,10,19.50
2015,05,21,12,11,19.60
2015,05,21,12,12,19.70
2015,05,21,12,13,19.70
2015,05,21,12,14,19.80
2015,05,21,12,15,19.90
2015,05,21,12,16,19.90
2015,05,21,12,17,20.00
2015,05,21,12,18,20.10
2015,05,21,12,19,20.00
2015,05,21,12,20,19.90
2015,05,21,12,21,20.00
2015,05,21,12,22,20.10
2015,05,21,12,23,20.10
2015,05,21,12,24,20.10
2015,05,21,12,25,20.20
2015,05,21,12,26,20.20
2015,05,21,12,27,20.20
2015,05,21,12,28,20.20
2015,05,21,12,29,20.20
2015,05,21,12,30,20.20
2015,05,21,12,31,20.20
2015,05,21,12,32,20.20
2015,05,21,12,33,20.20
2015,05,21,12,34,20.20
2015,05,21,12,35,20.10
2015,05,21,12,36,20.10
2015,05,21,12,37,20.10
2015,05,21,12,38,20.10
2015,05,21,12,39,20.20
2015,05,21,12,40,20.20
2015,05,21,12,41,20.20
2015,05,21,12,42,20.20
2015,05,21,12,43,20.20
2015,05,21,12,44,20.20
2015,05,21,12,45,20.30
2015,05,21,12,46,20.30
2015,05,21,12,47,20.30
2015,05,21,12,48,20.30
2015,05,21,12,49,20.30
2015,05,21,12,50,20.30
2015,05,21,12,51,20.30
2015,05,21,12,52,20.30
2015,05,21,12,53,20.30
2015,05,21,12,54,20.30
2015,05,21,12,55,20.30
2015,05,21,12,56,20.20
2015,05,21,12,57,20.20
2015,05,21,12,58,20.20
2015,05,21,12,59,20.20
2015,05,21,13,00,20.20
2015,05,21,13,01,20.20
2015,05,21,13,02,20.20
2015,05,21,13,03,20.20
2015,05,21,13,04,20.30
2015,05,21,13,05,20.40
2015,05,21,13,06,20.50
2015,05,21,13,07,20.70
2015,05,21,13,08,20.70
2015,05,21,13,09,20.80
2015,05,21,13,10,20.80
2015,05,21,13,11,20.80
2015,05,21,13,12,20.80
2015,05,21,13,13,20.90
2015,05,21,13,14,20.90
2015,05,21,13,15,20.90
2015,05,21,13,16,20.90
2015,05,21,13,17,20.90
2015,05,21,13,18,20.90
2015,05,21,13,19,21.00
2015,05,21,13,20,21.00
2015,05,21,13,21,20.80
2015,05,21,13,22,20.70
2015,05,21,13,23,20.70
2015,05,21,13,24,20.60
2015,05,21,13,25,20.50
2015,05,21,13,26,20.50
2015,05,21,13,27,20.40
2015,05,21,13,28,20.30
2015,05,21,13,29,20.30
2015,05,21,13,30,20.30
2015,05,21,13,31,20.40
2015,05,21,13,32,20.50
2015,05,21,13,33,20.50
2015,05,21,13,34,20.60
2015,05,21,13,35,20.60
2015,05,21,13,36,20.50
2015,05,21,13,37,20.50
2015,05,21,13,38,20.40
2015,05,21,13,39,20.40
2015,05,21,13,40,20.40
2015,05,21,13,41,20.40
2015,05,21,13,42,20.30
2015,05,21,13,43,20.40
2015,05,21,13,44,20.40
2015,05,21,13,45,20.50
2015,05,21,13,46,20.60
2015,05,21,13,47,20.70
2015,05,21,13,48,20.80
2015,05,21,13,49,20.90
2015,05,21,13,50,21.00
2015,05,21,13,51,21.10
2015,05,21,13,52,21.30
2015,05,21,13,53,21.30
2015,05,21,13,54,21.30
2015,05,21,13,55,21.30
2015,05,21,13,56,21.30
2015,05,21,13,57,21.30
2015,05,21,13,58,21.30
2015,05,21,13,59,21.30
2015,05,21,14,00,21.30
2015,05,21,14,01,21.30
2015,05,21,14,02,21.30
2015,05,21,14,03,21.30
2015,05,21,14,04,21.40
2015,05,21,14,05,21.40
2015,05,21,14,06,21.40
2015,05,21,14,07,21.50
2015,05,21,14,08,21.60
2015,05,21,14,09,21.60
2015,05,21,14,10,21.60
2015,05,21,14,11,21.60
2015,05,21,14,12,21.60
2015,05,21,14,13,21.60
2015,05,21,14,14,21.80
2015,05,21,14,15,21.90
2015,05,21,14,16,22.10
2015,05,21,14,17,22.30
2015,05,21,14,18,22.50
2015,05,21,14,19,22.70
2015,05,21,14,20,22.80
2015,05,21,14,21,22.80
2015,05,21,14,22,22.90
2015,05,21,14,23,23.00
2015,05,21,14,24,23.10
2015,05,21,14,25,23.20
2015,05,21,14,26,23.30
2015,05,21,14,27,23.30
2015,05,21,14,28,23.30
2015,05,21,14,29,23.30
2015,05,21,14,30,23.30
2015,05,21,14,31,23.30
2015,05,21,14,32,23.40
2015,05,21,14,33,23.30
2015,05,21,14,34,23.40
2015,05,21,14,35,23.40
2015,05,21,14,36,23.30
2015,05,21,14,37,23.30
2015,05,21,14,38,23.20
2015,05,21,14,39,23.20
2015,05,21,14,40,23.10
2015,05,21,14,41,23.00
2015,05,21,14,42,22.90
2015,05,21,14,43,22.80
2015,05,21,14,44,22.70
2015,05,21,14,45,22.70
2015,05,21,14,46,22.60
2015,05,21,14,47,22.50
2015,05,21,14,48,22.40
2015,05,21,14,49,22.40
2015,05,21,14,50,22.30
2015,05,21,14,51,22.30
2015,05,21,14,52,22.30
2015,05,21,14,53,22.20
2015,05,21,14,54,22.10
2015,05,21,14,55,22.10
2015,05,21,14,56,22.10
2015,05,21,14,57,22.00
2015,05,21,14,58,22.00
2015,05,21,14,59,22.00
2015,05,21,15,00,22.10
2015,05,21,15,01,22.10
2015,05,21,15,02,22.10
2015,05,21,15,03,22.20
2015,05,21,15,04,22.20
2015,05,21,15,05,22.30
2015,05,21,15,06,22.40
2015,05,21,15,07,22.40
2015,05,21,15,08,22.50
2015,05,21,15,09,22.60
2015,05,21,15,10,22.60
2015,05,21,15,11,22.60
2015,05,21,15,12,22.60
2015,05,21,15,13,22.70
2015,05,21,15,14,22.70
2015,05,21,15,15,22.70
2015,05,21,15,16,22.70
2015,05,21,15,17,22.70
2015,05,21,15,18,22.60
2015,05,21,15,19,22.50
2015,05,21,15,20,22.40
2015,05,21,15,21,22.30
2015,05,21,15,22,22.20
2015,05,21,15,23,22.20
2015,05,21,15,24,22.20
2015,05,21,15,25,22.20
2015,05,21,15,26,22.20
2015,05,21,15,27,22.20
2015,05,21,15,28,22.20
2015,05,21,15,29,22.20
2015,05,21,15,30,22.20
2015,05,21,15,31,22.20
2015,05,21,15,32,22.30
2015,05,21,15,33,22.30
2015,05,21,15,34,22.30
2015,05,21,15,35,22.30
2015,05,21,15,36,22.30
2015,05,21,15,37,22.40
2015,05,21,15,38,22.40
2015,05,21,15,39,22.40
2015,05,21,15,40,22.40
2015,05,21,15,41,22.40
2015,05,21,15,42,22.40
2015,05,21,15,43,22.40
2015,05,21,15,44,22.40
2015,05,21,15,45,22.40
2015,05,21,15,46,22.50
2015,05,21,15,47,22.50
2015,05,21,15,48,22.50
2015,05,21,15,49,22.60
2015,05,21,15,50,22.60
2015,05,21,15,51,22.60
2015,05,21,15,52,22.60
2015,05,21,15,53,22.50
2015,05,21,15,54,22.40
2015,05,21,15,55,22.30
2015,05,21,15,56,22.20
2015,05,21,15,57,22.20
2015,05,21,15,58,22.20
2015,05,21,15,59,22.10
2015,05,21,16,00,22.10
2015,05,21,16,01,22.10
2015,05,21,16,02,22.00
2015,05,21,16,03,21.90
2015,05,21,16,04,21.90
2015,05,21,16,05,21.90
2015,05,21,16,06,21.90
2015,05,21,16,07,21.90
2015,05,21,16,08,21.90
2015,05,21,16,09,21.90
2015,05,21,16,10,21.90
2015,05,21,16,11,21.90
2015,05,21,16,12,21.80
2015,05,21,16,13,21.70
2015,05,21,16,14,21.60
2015,05,21,16,15,21.60
2015,05,21,16,16,21.60
2015,05,21,16,17,21.60
2015,05,21,16,18,21.60
2015,05,21,16,19,21.50
2015,05,21,16,20,21.40
2015,05,21,16,21,21.50
2015,05,21,16,22,21.40
2015,05,21,16,23,21.40
2015,05,21,16,24,21.30
2015,05,21,16,25,21.30
2015,05,21,16,26,21.30
2015,05,21,16,27,21.30
2015,05,21,16,28,21.30
2015,05,21,16,29,21.30
2015,05,21,16,30,21.30
2015,05,21,16,31,21.30
2015,05,21,16,32,21.30
2015,05,21,16,33,21.30
2015,05,21,16,34,21.30
2015,05,21,16,35,21.30
2015,05,21,16,36,21.30
2015,05,21,16,37,21.30
2015,05,21,16,38,21.20
2015,05,21,16,39,21.20
2015,05,21,16,40,21.20
2015,05,21,16,41,21.10
2015,05,21,16,42,21.10
2015,05,21,16,43,21.00
2015,05,21,16,44,21.00
2015,05,21,16,45,21.00
2015,05,21,16,46,20.90
2015,05,21,16,47,20.90
2015,05,21,16,48,20.90
2015,05,21,16,49,20.90
2015,05,21,16,50,20.80
2015,05,21,16,51,20.70
2015,05,21,16,52,20.60
2015,05,21,16,53,20.50
2015,05,21,16,54,20.40
2015,05,21,16,55,20.30
2015,05,21,16,56,20.20
2015,05,21,16,57,20.20
2015,05,21,16,58,20.00
2015,05,21,16,59,19.90
2015,05,21,17,00,19.90
2015,05,21,17,01,19.80
2015,05,21,17,02,19.80
2015,05,21,17,03,19.80
2015,05,21,17,04,19.80
2015,05,21,17,05,19.70
2015,05,21,17,06,19.70
2015,05,21,17,07,19.70
2015,05,21,17,08,19.70
2015,05,21,17,09,19.70
2015,05,21,17,10,19.60
2015,05,21,17,11,19.60
2015,05,21,17,12,19.60
2015,05,21,17,13,19.60
2015,05,21,17,14,19.60
2015,05,21,17,15,19.60
2015,05,21,17,16,19.60
2015,05,21,17,17,19.60
2015,05,21,17,18,19.60
2015,05,21,17,19,19.60
2015,05,21,17,20,19.70
2015,05,21,17,21,19.70
2015,05,21,17,22,19.70
2015,05,21,17,23,19.70
2015,05,21,17,24,19.70
2015,05,21,17,25,19.70